Location: LDNL
(36.4545°S, 141.6685°E)
Time: 12:42:02
(UTC+10:00)

A-11 Canister half - Pass Details

Date: 17 August 2022
Orbit: 1524 x 1684 km, 47.3° (Epoch: 26 September)

Event Time Altitude Azimuth Distance (km) Brightness Sun altitude
Rises 21:35:35 0° 239° (WSW) 4,694 12.3 -43.3°
Reaches altitude 10° 21:38:40 10° 236° (SW) 3,712 11.6 -43.9°
Enters shadow 21:44:51 45° 217° (SW) 2,008 9.7 -45.1°
Maximum altitude 21:48:00 67° 153° (SSE) 1,664 - -45.7°
Drops below altitude 10° 21:57:29 10° 71° (ENE) 3,777 - -47.4°
Sets 22:00:39 0° 68° (ENE) 4,779 - -48.0°
